Bogdan Deac

Olheiro-Chefe - Petrolul
3 Fev 2028
Quinta-feira
Processo

Personalidade

Adaptabilidade (17) Ambição (2) Controvérsia (18) Lealdade (7) Pressão (17) Profissionalismo (1) Espírito Esportivo (11) Temperamento (7)

Perfil

Estilo de Treinamento Democrático
Licença Continental C
Determinação 4
Gestão de Pessoas 4
Motivação 9
Disciplina 7
Satisfação no Trabalho
100%
Fadiga
0%
Função Olheiro-Chefe
Salário 29.0K p/s
Contrato 14.03.2029

Desempenho

Comportamento Bom
Eficácia do Treinamento
38%
Desenvolvimento do Jogador
50%
Prevenção de Lesões
25%
Implementação Tática
35%

Eventos Recentes

Participou de uma reunião de recrutamento agora
Participou de uma reunião de recrutamento agora
Participou de uma reunião de recrutamento agora
Participou de uma reunião de recrutamento 7d atrás
Participou de uma reunião de recrutamento 7d atrás
Participou de uma reunião de recrutamento 7d atrás
Participou de uma reunião de recrutamento 7d atrás
Participou de uma reunião de recrutamento 7d atrás

Monitorando agora

76
Jogador Clube Status Habilidade Confiança Observado Última observação Último voto
Jefry Zapata Danubio Perdido 121 / 123 40% 2 17.01.2028 -
Nicolás Heiz Maipú Perdido 107 / 106 40% 1 17.01.2028 -
Enzo Cabrera Danubio Perdido 110 / 116 40% 1 17.01.2028 -
Lewis Morgan SuperSport United Ativo 128 / 121 40% 3 11.01.2028 -
Facundo Krüger FK Senica Ativo 112 / 119 40% 2 11.01.2028 Mais informações
Arthur Sales Free State Stars Ativo 120 / 118 40% 1 04.01.2028 -
Lucas Carrizo Plaza Colonia Negociando 123 / 112 40% 1 04.01.2028 -
Eric Ramírez Llaneros Ativo 118 / 107 40% 1 04.01.2028 -
Negueba Mirassol Ativo 129 / 120 40% 1 03.01.2028 -
Agustín Módica Gimnasia y Esgrima Ativo 121 / 121 40% 1 03.01.2028 -
Lucas Pedraza Defensores Unidos Ativo 101 / 104 40% 1 03.01.2028 -
Leandro Suhr Boston River Perdido 127 / 118 40% 1 03.01.2028 -
Adalberto Peñaranda Deportivo Tachira Ativo 120 / 111 40% 1 03.01.2028 -
Luciano Cosentino Wanderers Ativo 129 / 125 40% 1 31.12.2027 Mais informações
Mykola Kovtaliuk Botosani Ativo 111 / 111 30% 1 / 1m 17.11.2027 -
Callum Lang Preston Ativo 120 / 126 40% 1 26.07.2027 -
Bojan Radulović Huddersfield Town Ativo 121 / 109 40% 2 28.06.2027 -
Mathias Jørgensen Blackburn Rovers Ativo 131 / 117 40% 1 28.06.2027 -
Dom Ballard Leyton Orient Ativo 123 / 133 40% 1 15.06.2027 -
Niall Ennis Blackpool Ativo 109 / 109 40% 1 02.06.2027 -
Ryan Hedges Derby County Ativo 131 / 112 40% 1 25.01.2027 -
Hany Mukhtar Spezia Ativo 145 / 141 40% 1 25.01.2027 -
Marius Puscas Hajduk Split Ativo 146 / 147 40% 3 18.01.2027 -
Toby Collyer West Bromwich Albion Ativo 118 / 124 40% 1 18.01.2027 -
Victor Adeboyejo Ismaily Ativo 102 / 113 40% 2 01.01.2027 Mais informações
Mandla Mahlangu Ajax Cape Town Ativo 115 / 110 40% 1 31.12.2026 Mais informações
Tobias Gulliksen Rapid Wien Ativo 134 / 126 40% 2 16.12.2026 Mais informações
Ruslan Bezrukov Rubin Ativo 105 / 120 40% 1 16.12.2026 -
Cătălin Cîrjan Dinamo Bucharest Ativo 129 / 121 40% 2 09.12.2026 Mais informações
Antonio Galeano Remo Stars Ativo 122 / 116 40% 3 09.12.2026 -
Thabang Matuludi Polokwane City Ativo 104 / 112 40% 1 09.12.2026 Mais informações
José Martínes CSKA 1948 Ativo 110 / 108 40% 1 07.12.2026 Mais informações
Mandla Erasmus SuperSport United Ativo 107 / 124 40% 2 03.12.2026 -
Ştefan Baiaram Universitatea Craiova Ativo 128 / 124 40% 2 30.11.2026 -
Josip Mitrović Slaven Belupo Ativo 111 / 122 40% 1 30.11.2026 -
Mduduzi Shabalala Kaizer Chiefs Ativo 109 / 120 40% 2 28.11.2026 -
Tornike Morchiladze HNK Rijeka Ativo 111 / 119 40% 1 27.11.2026 -
Williams Manyama SuperSport United Ativo 121 / 110 40% 1 26.11.2026 -
Marco Pašalić Orlando City Ativo 127 / 132 40% 1 26.11.2026 -
Alexandru Musi Voluntari Ativo 114 / 116 40% 4 25.11.2026 -
Iván Angulo Orlando City Ativo 128 / 131 40% 1 25.11.2026 -
Florin Maxim Astra Ativo 123 / 123 40% 1 21.11.2026 -
Chico Banza Zamalek Ativo 118 / 119 40% 1 21.11.2026 -
Gonzalo Ríos Independiente Rivadavia Ativo 122 / 118 40% 1 20.11.2026 -
Carlos Mora Universitatea Craiova Ativo 122 / 121 40% 2 16.11.2026 -
Márcio Mendes Pandurii Ativo 117 / 116 40% 1 16.11.2026 -
Petar Stanić Ludogorets Ativo 128 / 138 40% 2 15.11.2026 -
Alexandru Cicaldau Pandurii Ativo 125 / 118 40% 1 14.11.2026 -
Ammar Ramadan DAC Dunajska Streda Ativo 132 / 124 40% 1 14.11.2026 -
Telasco Segovia Inter Miami CF Ativo 142 / 128 40% 1 13.11.2026 -
Yuber Quiñónes Deportivo Pereira Ativo 117 / 122 40% 1 12.11.2026 -
George Earthy Reading Ativo 122 / 109 40% 1 12.11.2026 -
Griffin Yow New England Revolution Ativo 118 / 131 40% 1 11.11.2026 -
Jack Currie Oxford United Ativo 123 / 130 40% 1 11.11.2026 -
Siyanda Ndlovu Bloemfontein Celtic Ativo 114 / 109 40% 1 09.11.2026 -
David Da Costa Portland Timbers Ativo 120 / 133 40% 1 07.11.2026 -
Mamoudou Karamoko Dinamo Bucharest Ativo 106 / 109 40% 1 07.11.2026 -
Reda Khadra Qarabag Ativo 129 / 138 40% 1 07.11.2026 -
Angelo Gattermayer Wolfsberger AC Ativo 128 / 127 40% 2 05.11.2026 -
Bongani Modiba Black Aces Ativo 107 / 123 40% 1 02.11.2026 -
Timothy Zechariah Rivers United Ativo 109 / 108 40% 1 07.10.2026 -
Dean Erasmus Ajax Cape Town Ativo 100 / 82 40% 1 07.10.2026 -
Axel Pérez NK Domzale Ativo 98 / 113 40% 1 06.10.2026 -
Alin Fică CFR Cluj Ativo 115 / 110 40% 2 13.09.2026 -
Oswin Appollis Orlando Pirates Ativo 111 / 131 40% 1 13.09.2026 -
Tio Cipot NK Maribor Ativo 116 / 119 40% 1 11.09.2026 -
Jordan Lotomba Bloemfontein Celtic Ativo 113 / 114 40% 1 11.09.2026 -
Suleiman Camara Slovan Bratislava Ativo 119 / 112 40% 1 11.09.2026 -
Johnly Yfeko Exeter City Ativo 114 / 98 40% 1 10.09.2026 -
Matías Pellegrini Vélez Ativo 121 / 117 40% 1 08.09.2026 -
Marko Brest Olimpija Ljubljana Ativo 108 / 117 40% 1 07.09.2026 -
Dominik Fiola Haladas Ativo 126 / 121 40% 1 04.08.2026 -
Chuchu Ramírez Nacional Ativo 126 / 120 40% 1 04.08.2026 -
Mauro Valiente Estudiantes Ativo 115 / 114 40% 1 01.08.2026 -
Adrián Alavés Ativo 123 / 112 40% 1 01.08.2026 -
Miguel Vargas Universitario Ativo 106 / 117 40% 1 01.08.2026 -